Zurück zum Katalog

FENGYUN 1C DEB

AktivPO
NORAD 31218·DEBRIS·🇨🇳 China

Gestartet May 10, 1999 von Taiyuan Satellite Launch Center

Loading…

Nächste Überflüge (nächste 24 Stunden)

TLE

AktuellSource: Space-Track

Epoche: Sep 14, 2026, 15:19 UTC

1 31218U 99025BKY 26257.63824188  .00032116  00000-0  31674-2 0  9998
2 31218  98.8416  41.6565 0009950 240.9074 119.1146 14.91889577 10855

Verfolge FENGYUN 1C DEB in Echtzeit mit AllMySat

Download on the App Store